Location: Schommer Observatory
(40.5200°N, 74.4500°W)
Time: 23:17:21
(UTC-05:00)

OTV 5 (USA 277) - Pass Details

Date: 15 October 2017
Orbit: 404 x 417 km, 43.0° (Epoch: 07 September)

Event Time Altitude Azimuth Distance (km) Brightness Sun altitude
Rises 20:19:32 0° 282° (WNW) 2,355 ? -24.0°
Reaches altitude 10° 20:21:41 10° 286° (WNW) 1,492 ? -24.4°
Enters shadow 20:23:45 33° 302° (WNW) 723 ? -24.8°
